This is the latest recevied weather packets stored in our database for station/object KO4IDC-13. If no packets are shown the sender has not sent any weather packets the latest 10 day(s).
| Time | Temp. | Humidity | Pressure | Rain* | Wind** | Luminosity | Snow |
|---|---|---|---|---|---|---|---|
| 1778108668 | 15.56° C | 56% | 1016.9 hPa | 0 mm | - | 131 W/m² | - |
| 1778108365 | 15.56° C | 58% | 1016.6 hPa | 0 mm | - | 132 W/m² | - |
| 1778108062 | 15.56° C | 58% | 1016.9 hPa | 0 mm | - | 134 W/m² | - |
| 1778107759 | 15.56° C | 58% | 1016.8 hPa | 0 mm | - | 109 W/m² | - |
| 1778107457 | 15.56° C | 58% | 1017 hPa | 0 mm | - | 118 W/m² | - |
| 1778107153 | 15.56° C | 57% | 1016.9 hPa | 0 mm | - | 123 W/m² | - |
| 1778106848 | 16.11° C | 54% | 1017 hPa | 0 mm | - | 129 W/m² | - |
| 1778106546 | 16.11° C | 54% | 1017.2 hPa | 0 mm | - | 156 W/m² | - |
| 1778106242 | 16.11° C | 54% | 1016.9 hPa | 0 mm | - | 154 W/m² | - |
| 1778105939 | 15.56° C | 56% | 1017 hPa | 0 mm | - | 193 W/m² | - |
| 1778105636 | 16.11° C | 55% | 1017 hPa | 0 mm | - | 181 W/m² | - |
| 1778105334 | 16.11° C | 55% | 1016.8 hPa | 0 mm | - | 174 W/m² | - |
| 1778105029 | 16.11° C | 54% | 1017.2 hPa | 0 mm | - | 173 W/m² | - |
| 1778104726 | 16.11° C | 53% | 1016.9 hPa | 0 mm | - | 193 W/m² | - |
| 1778104422 | 16.11° C | 57% | 1016.9 hPa | 0 mm | - | 193 W/m² | - |
| 1778104118 | 16.11° C | 57% | 1017 hPa | 0 mm | - | 203 W/m² | - |
| 1778103815 | 16.11° C | 56% | 1016.7 hPa | 0 mm | - | 209 W/m² | - |
| 1778103513 | 16.67° C | 55% | 1016.9 hPa | 0 mm | - | 216 W/m² | - |
| 1778103211 | 16.67° C | 55% | 1016.8 hPa | 0 mm | - | 273 W/m² | - |
| 1778102908 | 16.11° C | 57% | 1016.4 hPa | 0 mm | - | 305 W/m² | - |
| 1778102603 | 16.67° C | 56% | 1016.8 hPa | 0 mm | - | 229 W/m² | - |
| 1778102298 | 16.11° C | 55% | 1016.8 hPa | 0 mm | - | 258 W/m² | - |
| 1778101994 | 16.11° C | 54% | 1016.8 hPa | 0 mm | - | 221 W/m² | - |
| 1778101692 | 16.11° C | 54% | 1016.6 hPa | 0 mm | - | 270 W/m² | - |
| 1778101389 | 16.67° C | 50% | 1016.5 hPa | 0 mm | - | 293 W/m² | - |
* Rain latest hour (hover to see other rain measurements)
** Current wind speed in m/s (hover to see current wind gust speed)